www.pogodaiklimat.ru

Погода и климат >> Архив погоды >> Россия >> Ивановская область >> Иваново


АРХИВ ПОГОДЫ в Иванове

Время (UTC), дата Ветер
(напр.,м/с)
 
Видим.   Явления Облачность Т
(С)
Тd
(С)
f
(%)
Тe
(С)
Тes
(С)
Комфортность P
(гПа)
Po
(гПа)
Тmin
(С)
Tmax
(С)
R
(мм)
R24
(мм)
S
(см)
03 14.11 Ю 4
{10}
10 км 10/0
[Ac trans Ci fib]
-4.8 -12.4 55 -11 -11 прохладно 1030.7 1014.4 -5.1
06 14.11 Ю 4 10 км 8/0
[Ac trans Ci fib]
-4.7 -11.3 60 -11 -11 прохладно 1029.9 1013.6
09 14.11 Ю 4 10 км 10/0
[Ac trans Ci fib]
-2.3 -8.9 61 -8 -7 по сезону 1029.1 1012.9
12 14.11 Ю 4 10 км 10/0
[Ac trans Ci fib]
-1.6 -7.0 67 -7 -7 по сезону 1029.4 1013.2
15 14.11 Ю 3 10 км 10/3 300 м
[Sc Ac trans Ci fib]
-1.3 -5.2 75 -6 -6 по сезону 1029.7 1013.6 -1.3
18 14.11 Ю 4 10 км 10/8 540 м
[Sc Ac und]
-1.1 -6.3 68 -6 -6 по сезону 1030.1 1014.0
21 14.11 Ю 2 10 км 10/6 600 м
[Sc Ac und]
-1.5 -7.8 62 -5 -5 по сезону 1031.7 1015.6
00 15.11 Ю 2 10 км 10/4 600 м
[Sc Ac und]
-1.8 -7.2 67 -5 -5 по сезону 1032.8 1016.6
03 15.11 Ю 2 10 км 10/3 600 м
[Sc Ac und]
-1.2 -9.3 54 -4 -4 по сезону 1034.2 1018.0 -2.7
06 15.11 Ю 2 10 км 10/8 900 м
[Sc Ac und]
-1.3 -11.1 47 -4 -4 по сезону 1036.0 1019.8
09 15.11 Ю 3 10 км 10/8 900 м
[Sc Ac und]
-0.4 -11.2 44 -4 -4 по сезону 1037.5 1021.3
12 15.11 Ю 1 10 км 6/0
[Ac As]
+1.1 -11.3 39 0 0 тепло 1038.7 1022.6
15 15.11 Ю 3 10 км 6/0
[Ac As]
-2.5 -11.7 49 -7 -7 по сезону 1040.0 1023.7 +1.7
18 15.11 Ю 2 10 км 6/0
[Ac As]
-5.3 -11.8 60 -9 -9 по сезону 1041.7 1025.1
21 15.11 Ю 2 10 км 6/0
[Ac As]
-4.7 -12.2 56 -8 -8 по сезону 1043.1 1026.6
00 16.11 Ю 3 10 км 6/0
[Ac As]
-6.1 -12.4 61 -11 -11 по сезону 1043.5 1026.9
03 16.11 ЮЗ 1 10 км 6/0
[Ac As]
-8.6 -12.8 72 -11 -11 по сезону 1044.6 1027.8 -8.6
06 16.11 ЮЗ 2 10 км 8/0
[Ci fib]
-8.0 -12.4 71 -12 -12 прохладно 1045.2 1028.4 -9.6
09 16.11 ЮЗ 2 10 км 6/0
[Ci fib]
-1.0 -9.6 52 -4 -3 по сезону 1044.9 1028.6
12 16.11 З 2 10 км 10/10 630 м
[Sc]
+1.1 -9.4 45 -2 -2 по сезону 1044.3 1028.1
15 16.11 ЮЗ 1 10 км 10/10 480 м
[Sc]
+0.3 -7.9 54 -1 -1 тепло 1043.4 1027.2 +1.9
18 16.11 З 4 10 км 10/10 480 м
[Sc]
+0.9 -2.6 77 -4 -4 по сезону 1042.3 1026.1
21 16.11 ЮЗ 3 10 км 10/10 400 м
[Sc]
-0.6 -5.4 70 -5 -5 по сезону 1041.1 1024.8
00 17.11 ЮЗ 2 10 км 10/10 300 м
[Sc]
-0.6 -4.2 77 -4 -4 по сезону 1039.2 1023.0
03 17.11 ЮЗ 3 10 км 10/10 600 м
[Sc]
-0.1 -2.1 86 -5 -5 по сезону 1036.6 1020.5 -0.7
06 17.11 З 3 10 км 10/8 300 м
[Sc diur, vesp Ac trans]
+0.1 -2.1 85 -5 -5 по сезону 1034.4 1018.3
09 17.11 З 4 10 км 10/8 360 м
[Sc diur, vesp Ac trans]
+1.3 -1.5 82 -4 -4 по сезону 1031.5 1015.5
12 17.11 З 3 2000 м слабый дождь 10/10 180 м
[Frnb Ns]
+1.1 +0.2 94 -4 -4 по сезону 1029.0 1013.0
15 17.11 З 4 2000 м слабый снег {дождь} 10/10 180 м
[Frnb Ns]
+0.3 -0.4 95 -5 -5 по сезону 1025.9 1010.0 +2.0 2
18 17.11 З 3 2000 м снег 10/10 150 м
[Frnb Ns]
+0.1 -0.4 96 -5 -5 по сезону 1022.5 1006.7
21 17.11 З 3 4000 м в посл. час снег 10/10 210 м
[Frnb Ns]
+0.3 -0.3 96 -5 -5 по сезону 1020.3 1004.4
00 18.11 З 2 10 км {снег} 10/10 210 м
[Frnb Ns]
+0.2 -0.4 96 -4 -4 по сезону 1018.2 1002.4
03 18.11 З 2 1200 м дымка 10/10 90 м
[St]
+0.2 -0.3 96 -4 -4 по сезону 1017.5 1001.7 +0.1 4 3
06 18.11 ЮЗ 1 2000 м слабая морось {снег} 10/10 90 м
[St]
+0.3 -0.1 97 -2 -2 тепло 1017.7 1001.9
09 18.11 ЮЗ 1 2000 м снег {морось} 10/10 120 м
[Frnb Ns]
+0.5 +0.1 97 -2 -2 тепло 1019.2 1003.4
12 18.11 ЮЗ 1 4000 м слабая морось {снег} 10/10 180 м
[St]
+0.8 +0.3 96 -1 -1 тепло 1020.6 1004.8
15 18.11 СЗ 2 4000 м слабая морось 10/10 180 м
[St]
+0.3 -0.2 96 -3 -3 по сезону 1022.7 1006.8 +0.9 2
18 18.11 СЗ 2 4000 м дымка {морось, туман} 10/10 120 м
[St]
+0.4 -0.1 96 -3 -3 тепло 1024.1 1008.3
21 18.11 СЗ 2 1200 м дымка 10/10 90 м
[St]
+0.4 0.0 97 -3 -3 тепло 1025.1 1009.2
00 19.11 С 1 4000 м дымка {туман} 10/10 180 м
[St]
+1.3 +0.8 96 -1 -1 тепло 1026.6 1010.7
03 19.11 С 2 4000 м слабая морось 10/10 180 м
[St]
+1.2 +0.8 97 -2 -2 тепло 1027.5 1011.6 +0.2 0.4 2
06 19.11 С 3 6000 м в посл. час морось 10/10 180 м
[St]
+0.7 +0.2 96 -4 -4 по сезону 1029.0 1013.0
09 19.11 С 3 6000 м слабый снег {морось} 10/10 180 м
[Frnb]
+0.3 -0.7 93 -4 -4 по сезону 1030.4 1014.4
12 19.11 С 3 6000 м слабый ливневой снег 10/10 300 м
[Cb cap]
-0.1 -1.6 90 -5 -5 по сезону 1030.8 1014.8
15 19.11 С 3 10 км в посл. час снег {ливн. осадки} 10/10 600 м
[Sc]
-1.0 -2.9 87 -6 -6 по сезону 1031.6 1015.5 +1.2 0.0
18 19.11 С 3 10 км {ливн. осадки, снег} 10/10 450 м
[Sc]
-2.1 -5.0 80 -7 -7 по сезону 1032.1 1015.9
21 19.11 С 3 10 км 10/10 450 м
[Sc diur, vesp]
-3.2 -4.6 90 -9 -9 по сезону 1032.0 1015.8
00 20.11 СЗ 3 10 км 10/10 450 м
[Sc]
-4.0 -5.8 87 -9 -9 по сезону 1031.7 1015.5
03 20.11 С 2 6000 м слабый снег 10/10 210 м
[Frnb]
-4.7 -5.8 92 -9 -9 по сезону 1030.4 1014.1 -4.7 0.0 2
06 20.11 СЗ 4 4000 м слабая переохл. морось (гололёд) {снег} 10/10 210 м
[St]
-5.5 -6.5 93 -12 -12 по сезону 1029.6 1013.3 -5.5
09 20.11 З 4 10 км {морось} 10/10 150 м
[St]
-4.9 -5.8 93 -11 -11 по сезону 1027.9 1011.7
12 20.11 З 3 10 км {морось} 10/10 240 м
[St]
-4.4 -5.5 92 -10 -10 по сезону 1025.6 1009.3
15 20.11 З 3 10 км 10/6 1200 м
[Sc Ac trans]
-4.3 -5.9 89 -10 -10 по сезону 1023.6 1007.5 -4.2 0.0
18 20.11 З 3 4000 м слабый снег 10/6 1080 м
[Sc As op]
-3.6 -5.8 85 -9 -9 по сезону 1021.1 1005.0
21 20.11 З 5 10 км {снег} 10/10 450 м
[Sc]
-3.1 -5.0 87 -10 -10 по сезону 1019.8 1003.7

 

Местоположение метеостанции Иваново (Ивановская область, Россия): широта 56.95 долгота 40.97 высота над уровнем моря 126 м.

В архиве по умолчанию представлена погода в Иванове за последнюю неделю. Архивные данные за месяц целиком и за предыдущие месяцы, начиная с января 2011 года, Вы можете получить, выбрав интересующий диапазон дат из раскрывающегося списка и нажав кнопку "Ввод!".


*Определитесь, кто Вы:
робот инопланетянин человек

Внимание! Время в таблицах - всемирное. Для получения местного времени необходимо прибавить поправку, которая в Иванове равна 3 ч.

Смотрите также архив погоды в соседних городах и на ближайших метеорологических станциях:

Погода в Тейково (Ивановская область, Россия) (28 км)
Погода в Шуе (Ивановская область, Россия) (28 км)
Погода в Пешном (Атырауская область, Казахстан) (43 км)
Погода в Приволжске (Ивановская область, Россия) (51 км)
Погода в Плесе (Ивановская область, Россия) (63 км)
Погода в Вичуге (Ивановская область, Россия) (65 км)
Погода в Суздали (Владимирская область, Россия) (67 км)
Погода в Коврове (Владимирская область, Россия) (70 км)
Погода в Гаврилов-Яме (Ярославская область, Россия) (80 км)
Погода в Костроме (Костромская область, Россия) (88 км)

Пояснения к столбцам:

Ветер - указаны скорость ветра в м/с - средняя за 10 мин, порывы в срок и между сроками (в фигурных скобках) и направление, откуда дует ветер: С - северный, СВ - северо-восточный, В - восточный, ЮВ - юго-восточный, Ю - южный, ЮЗ - юго-западный, З - западный, СЗ - северо-западный.
Видимость - горизонтальная дальность видимости в метрах или километрах. При видимости от 1 до 10 км при отсутствии осадков обычно наблюдается дымка, при ухудшении видимости до 1 км и менее - туман. В сухую погоду видимость может ухудшаться дымом, пылью или мглою.
Явления - указаны атмосферные явления, наблюдавшиеся в срок или в последний час перед сроком; фигурными скобками обозначены явления, наблюдавшиеся между сроками (за 1-3 часа до срока); квадратными скобками обозначены град или гололедные отложения с указанием их диаметра в мм.
Облачность - указаны через наклонную черту общая и нижняя облачность в баллах и высота нижней границы облаков в метрах; квадратными скобками обозначены формы облаков: Ci - перистые, Cs - перисто-слоистые, Cc - перисто-кучевые, Ac - высококучевые, As - высокослоистые, Sc - слоисто-кучевые, Ns - слоисто-дождевые, Cu - кучевые, Cb - кучево-дождевые. Подробнее классификацию облаков см. в Атласе облаков (PDF).
T - Температура воздуха - температура, измеренная на высоте 2 м над землей.
Td - Температура точки росы - температура, при понижении до которой содержащийся в воздухе водяной пар достигнет насыщения.
f - Относительная влажность воздуха - влажноcть воздуха, измеренная на высоте 2 м над землей.
Te - Эффективная температура - температура, которую ощущает одетый по сезону человек в тени. Характеристика душности погоды. При расчете учитывается влияние влажности воздуха и скорости ветра на теплоощущения человека.
Tes - Эффективная температура на солнце - температура, которую ощущает человек, с поправкой на солнечный нагрев. Характеристика знойности погоды. Зависит от высоты солнца над горизонтом, облачности и скорости ветра. Ночью, в пасмурную погоду, а также при ветре 12 м/с и более поправка равна нулю.
P - Атмосферное давление - приведенное к уровню моря атмосферное давление.
Po - Атмосферное давление - измеренное на уровне метеостанции атмосферное давление.
Tmin - Минимальная температура - минимум температуры воздуха на высоте 2 м над землей.
Tmax - Максимальная температура - максимум температуры воздуха на высоте 2 м над землей.
R - Количество осадков - Количество выпавших осадков за период времени, мм. При наведении курсора мыши на число - период времени, за который выпало указанное количество осадков.
R24 - Количество осадков - Количество выпавших осадков за 24 часа, мм.
S - Снежный покров - Высота снежного покрова, см. При наведении курсора мыши на число - состояние снежного покрова и степень покрытия местности в баллах.